Location: Natural Bridges National Monument
(37.6093°N, 109.9767°W)
Time: 08:22:32
(UTC-06:00)

USA 32 - Visible Passes

Search period start: 30 May 2015 00:00
Search period end: 09 June 2015 00:00
Orbit: 777 x 784 km, 85.0° (Epoch: 12 April)

Date Brightness Start Highest point End Pass type
(mag) Time Alt. Az. Time Alt. Az. Time Alt. Az.
30 May 6.6 03:32:32 10° ESE 03:35:32 16° E 03:38:46 10° NE visible
30 May 4.3 05:11:02 10° SSW 05:16:07 51° W 05:21:12 10° N visible
31 May 4.0 04:38:09 10° S 04:43:22 87° E 04:48:38 10° N visible
01 Jun 4.9 04:05:50 10° SSE 04:10:44 47° E 04:15:46 10° NNE visible
02 Jun 5.9 03:33:59 10° SE 03:38:11 26° E 03:42:31 10° NNE visible
02 Jun 4.9 05:14:25 10° SW 05:19:04 31° WNW 05:23:41 10° NNW visible
03 Jun 6.5 03:03:07 10° ESE 03:05:42 14° E 03:08:34 10° NE visible
03 Jun 4.2 04:42:00 15° SSW 04:46:13 57° W 04:51:23 10° N visible
04 Jun 4.1 04:09:46 19° S 04:13:30 78° E 04:18:46 10° N visible
05 Jun 5.0 03:37:30 19° SSE 03:40:53 42° E 03:45:50 10° NNE visible
05 Jun 5.5 05:18:17 10° WSW 05:22:07 20° WNW 05:25:49 10° NNW visible
06 Jun 5.9 03:05:14 14° SE 03:08:21 23° E 03:12:30 10° NNE visible
06 Jun 4.8 04:45:46 17° SW 04:49:09 35° W 04:53:55 10° NNW visible
07 Jun 6.5 02:33:49 10° ESE 02:35:53 13° E 02:38:16 10° NE visible
07 Jun 4.1 04:13:29 27° SSW 04:16:20 64° W 04:21:33 10° N visible
08 Jun 4.2 03:41:10 31° SSE 03:43:38 70° E 03:48:52 10° N visible
08 Jun 6.0 05:23:08 10° W 05:25:18 12° WNW 05:27:08 10° NW visible
